When you browse on this site, cookies collect data to enhance your experience and personalize the content and advertising you see.
Visit our Privacy Policy to learn more. By continuing to use the site, you agree to this use of cookies and data.
  • în România
  • Lista ţărilor
  • Pe 7 zile
  • Temperatura apei
  • Hartă satelitară
  • Meteo pe hartă
  • Widget-uri
  • user-avatar
    Intrare

    Meteo pe oră la Sazonovo

    Astăzi, 18 Februarie, Luni

    Timp Temperatura Precipitaţii Vânt Presiune Umiditate
    00:00 -5°C° 0 mm 4 m/s 744 mmHg 82%
    01:00 -5°C° 0 mm 4 m/s 745 mmHg 83%
    02:00 -5°C° 0 mm 2 m/s 745 mmHg 90%
    03:00 -6°C° 0 mm 2 m/s 746 mmHg 91%
    04:00 -6°C° 0 mm 2 m/s 746 mmHg 92%
    05:00 -7°C° 0 mm 3 m/s 747 mmHg 93%
    06:00 -6°C° 0 mm 2 m/s 748 mmHg 93%
    07:00 -7°C° 0 mm 2 m/s 748 mmHg 93%
    08:00 -7°C° 0 mm 3 m/s 748 mmHg 92%
    09:00 -7°C° 0 mm 3 m/s 749 mmHg 88%
    10:00 -6°C° 0 mm 3 m/s 749 mmHg 84%
    11:00 -4°C° 0 mm 2 m/s 750 mmHg 80%
    12:00 -3°C° 0 mm 2 m/s 750 mmHg 78%
    13:00 -3°C° 0 mm 2 m/s 750 mmHg 75%
    14:00 -2°C° 0 mm 2 m/s 750 mmHg 73%
    15:00 -3°C° 0 mm 2 m/s 750 mmHg 77%
    16:00 -2°C° 0 mm 1 m/s 750 mmHg 82%
    17:00 -3°C° 0 mm 1 m/s 750 mmHg 87%
    18:00 -4°C° 0 mm 1 m/s 750 mmHg 87%
    19:00 -4°C° 0 mm 1 m/s 750 mmHg 88%
    20:00 -6°C° 0 mm 1 m/s 750 mmHg 89%
    21:00 -6°C° 0 mm 1 m/s 750 mmHg 89%
    22:00 -7°C° 0 mm 2 m/s 750 mmHg 90%
    23:00 -7°C° 0 mm 2 m/s 750 mmHg 90%

    Mâine, 19 Februarie, Marţi

    Timp Temperatura Precipitaţii Vânt Presiune Umiditate
    00:00 -7°C° 0 mm 2 m/s 749 mmHg 89%
    01:00 -7°C° 0 mm 3 m/s 749 mmHg 87%
    02:00 -7°C° 0 mm 3 m/s 749 mmHg 86%
    03:00 -7°C° 0 mm 3 m/s 748 mmHg 84%
    04:00 -8°C° 0 mm 4 m/s 747 mmHg 81%
    05:00 -8°C° 0 mm 4 m/s 747 mmHg 79%
    06:00 -8°C° 0 mm 4 m/s 746 mmHg 79%
    07:00 -8°C° 0 mm 4 m/s 746 mmHg 78%
    08:00 -7°C° 0 mm 4 m/s 745 mmHg 78%
    09:00 -6°C° 0 mm 5 m/s 745 mmHg 77%
    10:00 -5°C° 0 mm 5 m/s 744 mmHg 75%
    11:00 -2°C° 0 mm 5 m/s 744 mmHg 74%
    12:00 -2°C° 0 mm 5 m/s 743 mmHg 75%
    13:00 -1°C° 0 mm 5 m/s 743 mmHg 76%
    14:00 0°C° 0 mm 5 m/s 742 mmHg 77%
    15:00 -1°C° 0 mm 5 m/s 741 mmHg 80%
    16:00 -1°C° 0 mm 5 m/s 741 mmHg 84%
    17:00 -2°C° 0 mm 4 m/s 740 mmHg 87%
    18:00 -2°C° 0 mm 5 m/s 740 mmHg 87%
    19:00 -1°C° 0 mm 5 m/s 739 mmHg 88%
    20:00 -1°C° 0 mm 5 m/s 739 mmHg 88%
    21:00 -1°C° 0 mm 5 m/s 738 mmHg 89%
    22:00 -1°C° 0 mm 5 m/s 737 mmHg 90%
    23:00 -1°C° 0 mm 5 m/s 736 mmHg 90%

    Poimâine, 20 Februarie, Miercuri

    Timp Temperatura Precipitaţii Vânt Presiune Umiditate
    00:00 0°C° 0 mm 5 m/s 736 mmHg 90%
    01:00 0°C° 0 mm 5 m/s 736 mmHg 90%
    02:00 0°C° 0 mm 5 m/s 735 mmHg 91%
    03:00 0°C° 0.1 mm 4 m/s 735 mmHg 91%
    04:00 0°C° 0.1 mm 4 m/s 734 mmHg 91%
    05:00 0°C° 0.1 mm 4 m/s 734 mmHg 91%
    06:00 0°C° 0 mm 4 m/s 734 mmHg 92%
    07:00 0°C° 0 mm 4 m/s 734 mmHg 93%
    08:00 0°C° 0 mm 4 m/s 734 mmHg 94%
    09:00 0°C° 0.1 mm 4 m/s 734 mmHg 93%
    10:00 0°C° 0.1 mm 4 m/s 734 mmHg 91%
    11:00 0°C° 0.1 mm 4 m/s 734 mmHg 90%
    12:00 +1°C° 0.1 mm 4 m/s 734 mmHg 87%
    13:00 +1°C° 0.1 mm 4 m/s 734 mmHg 83%
    14:00 +1°C° 0.1 mm 5 m/s 734 mmHg 80%
    15:00 +1°C° 0 mm 5 m/s 734 mmHg 81%
    16:00 0°C° 0 mm 5 m/s 734 mmHg 83%
    17:00 0°C° 0 mm 5 m/s 734 mmHg 85%
    18:00 0°C° 0.2 mm 5 m/s 733 mmHg 85%
    19:00 0°C° 0.2 mm 5 m/s 733 mmHg 85%
    20:00 -1°C° 0.2 mm 5 m/s 733 mmHg 86%
    21:00 -1°C° 0.3 mm 5 m/s 733 mmHg 83%
    22:00 -1°C° 0.3 mm 5 m/s 733 mmHg 80%
    23:00 -2°C° 0.3 mm 5 m/s 733 mmHg 77%

    21 Februarie, Joi

    Timp Temperatura Precipitaţii Vânt Presiune Umiditate
    00:00 -2°C° 0.1 mm 5 m/s 734 mmHg 79%
    01:00 -4°C° 0.1 mm 5 m/s 734 mmHg 80%
    02:00 -5°C° 0.1 mm 5 m/s 735 mmHg 82%
    03:00 -5°C° 0.1 mm 5 m/s 735 mmHg 81%
    04:00 -5°C° 0.1 mm 5 m/s 736 mmHg 80%
    05:00 -5°C° 0.1 mm 5 m/s 736 mmHg 80%
    06:00 -5°C° 0.1 mm 5 m/s 737 mmHg 78%
    07:00 -6°C° 0.1 mm 6 m/s 737 mmHg 75%
    08:00 -6°C° 0.1 mm 6 m/s 738 mmHg 73%
    09:00 -6°C° 0.1 mm 6 m/s 738 mmHg 71%
    10:00 -8°C° 0.1 mm 6 m/s 739 mmHg 69%
    11:00 -8°C° 0.1 mm 6 m/s 740 mmHg 66%
    12:00 -8°C° 0 mm 6 m/s 740 mmHg 66%
    13:00 -8°C° 0 mm 6 m/s 741 mmHg 66%
    14:00 -8°C° 0 mm 6 m/s 742 mmHg 66%
    15:00 -9°C° 0 mm 6 m/s 742 mmHg 67%
    16:00 -8°C° 0 mm 5 m/s 743 mmHg 68%
    17:00 -10°C° 0 mm 5 m/s 744 mmHg 69%
    18:00 -10°C° 0 mm 5 m/s 745 mmHg 69%
    19:00 -11°C° 0 mm 5 m/s 746 mmHg 70%
    20:00 -11°C° 0 mm 5 m/s 746 mmHg 71%
    21:00 -10°C° 0 mm 4 m/s 747 mmHg 71%
    22:00 -11°C° 0 mm 4 m/s 748 mmHg 72%
    23:00 -11°C° 0 mm 4 m/s 748 mmHg 72%

    22 Februarie, Vineri

    Timp Temperatura Precipitaţii Vânt Presiune Umiditate
    00:00 -12°C° 0 mm 4 m/s 749 mmHg 73%
    01:00 -12°C° 0 mm 4 m/s 750 mmHg 74%
    02:00 -12°C° 0 mm 4 m/s 751 mmHg 75%
    03:00 -12°C° 0 mm 4 m/s 752 mmHg 75%
    04:00 -12°C° 0 mm 4 m/s 752 mmHg 76%
    05:00 -12°C° 0 mm 4 m/s 753 mmHg 76%
    06:00 -12°C° 0 mm 4 m/s 754 mmHg 77%
    07:00 -12°C° 0 mm 4 m/s 754 mmHg 78%
    08:00 -12°C° 0 mm 5 m/s 755 mmHg 79%
    09:00 -11°C° 0 mm 4 m/s 756 mmHg 75%
    10:00 -10°C° 0 mm 4 m/s 756 mmHg 71%
    11:00 -9°C° 0 mm 4 m/s 756 mmHg 66%
    12:00 -8°C° 0 mm 4 m/s 756 mmHg 62%
    13:00 -7°C° 0 mm 5 m/s 757 mmHg 59%
    14:00 -7°C° 0 mm 5 m/s 757 mmHg 55%
    15:00 -7°C° 0 mm 5 m/s 757 mmHg 56%
    16:00 -8°C° 0 mm 4 m/s 757 mmHg 58%
    17:00 -9°C° 0 mm 4 m/s 758 mmHg 59%
    18:00 -9°C° 0 mm 4 m/s 758 mmHg 62%
    19:00 -9°C° 0 mm 3 m/s 759 mmHg 66%
    20:00 -9°C° 0 mm 3 m/s 759 mmHg 69%
    21:00 -10°C° 0 mm 3 m/s 759 mmHg 72%
    22:00 -9°C° 0 mm 2 m/s 759 mmHg 76%
    23:00 -10°C° 0 mm 2 m/s 760 mmHg 80%

    23 Februarie, Sâmbătă

    Timp Temperatura Precipitaţii Vânt Presiune Umiditate
    00:00 -9°C° 0 mm 1 m/s 759 mmHg 82%
    01:00 -9°C° 0 mm 1 m/s 759 mmHg 84%
    02:00 -10°C° 0 mm 1 m/s 759 mmHg 86%
    03:00 -10°C° 0 mm 1 m/s 758 mmHg 86%
    04:00 -10°C° 0 mm 1 m/s 758 mmHg 87%
    05:00 -9°C° 0 mm 1 m/s 757 mmHg 87%
    06:00 -9°C° 0 mm 1 m/s 757 mmHg 84%
    07:00 -8°C° 0 mm 1 m/s 756 mmHg 82%
    08:00 -9°C° 0 mm 2 m/s 756 mmHg 79%
    09:00 -8°C° 0.1 mm 2 m/s 755 mmHg 81%
    10:00 -8°C° 0.1 mm 2 m/s 754 mmHg 84%
    11:00 -8°C° 0.1 mm 3 m/s 753 mmHg 86%
    12:00 -8°C° 0.3 mm 3 m/s 753 mmHg 87%
    13:00 -7°C° 0.3 mm 3 m/s 752 mmHg 87%
    14:00 -7°C° 0.3 mm 3 m/s 751 mmHg 88%
    15:00 -7°C° 0.1 mm 3 m/s 751 mmHg 89%
    16:00 -7°C° 0.1 mm 3 m/s 750 mmHg 89%
    17:00 -6°C° 0.1 mm 2 m/s 750 mmHg 90%
    18:00 -6°C° 0 mm 2 m/s 750 mmHg 91%
    19:00 -6°C° 0 mm 2 m/s 750 mmHg 93%
    20:00 -6°C° 0 mm 2 m/s 750 mmHg 94%
    21:00 -6°C° 0 mm 2 m/s 750 mmHg 94%
    22:00 -5°C° 0 mm 2 m/s 750 mmHg 95%
    23:00 -5°C° 0 mm 2 m/s 750 mmHg 95%
    Arată mai mult